Flag for United Kingdom Weather past 2 weeks in Sutton Coldfield, England, United Kingdom

Now
43 °F

Scattered showers. Partly sunny.


Feels Like: 35 °F
Forecast: 36 / 43 °F
Wind: 16 mph from West

Location: Birmingham / Airport

Current Time: Mar 2, 2015 at 1:18:08 PM

Latest Report: Mar 2, 2015 at 12:50 PM


Visibility: 6 mi

Pressure: 29.74 "Hg

Humidity: 53%

Dew point: 27 °F

Location of Sutton ColdfieldLocation

Historic Weather in Sutton Coldfield — Graph

°F

Sutton Coldfield temperature yesterday

Maximum temperature yesterday: 50 °F (at 12:20 AM)
Minimum temperature yesterday: 36 °F (at 10:50 PM)
Average temperature yesterday: 43 °F

Past Weeks' High & Low Weather Summary

 TemperatureHumidityPressure
High52 °F (Feb 25, 1:20 PM)100% (Feb 16, 8:50 AM)30.69 "Hg (Feb 16, 8:50 AM)
Low32 °F (Feb 21, 11:20 PM)46% (Feb 17, 1:20 PM)29.12 "Hg (Feb 23, 5:20 PM)
Average42 °F79%29.81 "Hg
* Reported Feb 15 12:20 PM — Mar 2 12:20 PM, Sutton Coldfield, Weather by CustomWeather, © 2015

Note: Actual official high and low records may vary slightly from our data, if they occured in-between our weather recording intervals... More about our weather records

Advertising

Sutton Coldfield weather history for previous 24 hours

 ConditionsComfort  
Time TempWeatherWind HumidityBarometerVisibility
12:20 PM
Mon, Mar 2
43 °FScattered clouds.16 mph53%29.71 "HgN/A
11:50 AM43 °FPartly sunny.21 mph53%29.68 "HgN/A
11:20 AM41 °FBroken clouds.15 mph61%29.68 "HgN/A
10:50 AM41 °FPartly sunny.16 mph57%29.65 "HgN/A
10:20 AM41 °FPartly sunny.14 mph57%29.65 "HgN/A
9:50 AM39 °FBroken clouds.15 mph65%29.62 "HgN/A
9:20 AM36 °FLight snow. Broken clouds.12 mph81%29.62 "Hg5 mi
8:50 AM39 °FRain showers. Scattered clouds.9 mph75%29.59 "HgN/A
8:20 AM37 °FPassing clouds.9 mph81%29.59 "HgN/A
7:50 AM34 °FScattered clouds.8 mph93%29.59 "HgN/A
7:20 AM36 °FMixture of precip. Broken clouds.7 mph87%29.56 "HgN/A
6:50 AM37 °FRain. Passing clouds.10 mph75%29.56 "HgN/A
6:20 AM37 °FPassing clouds.9 mph75%29.53 "HgN/A
5:50 AM37 °FClear.10 mph75%29.53 "Hg10 mi
5:20 AM36 °FPassing clouds.8 mph81%29.53 "HgN/A
4:50 AM37 °FPassing clouds.9 mph81%29.53 "HgN/A
4:20 AM37 °FClear.9 mph81%29.53 "Hg10 mi
3:50 AM37 °FPassing clouds.7 mph81%29.53 "HgN/A
3:20 AM36 °FClear.8 mph87%29.53 "Hg10 mi
2:50 AM37 °FChilly.10 mph81%29.53 "HgN/A
2:20 AM37 °FChilly.10 mph81%29.53 "HgN/A
1:50 AM37 °FPassing clouds.12 mph81%29.50 "HgN/A
1:20 AM37 °FClear.10 mph81%29.50 "Hg10 mi
12:50 AM37 °FClear.8 mph81%29.50 "Hg10 mi
12:20 AM36 °FClear.8 mph87%29.50 "Hg10 mi
11:50 PM
Sun, Mar 1
36 °FPassing clouds.8 mph87%29.50 "HgN/A
11:20 PM36 °FClear.9 mph81%29.50 "Hg10 mi
10:50 PM36 °FClear.7 mph81%29.47 "Hg10 mi
10:20 PM37 °FClear.6 mph75%29.47 "Hg10 mi
9:50 PM37 °FPassing clouds.8 mph75%29.47 "HgN/A
9:20 PM37 °FClear.10 mph75%29.47 "Hg10 mi
8:50 PM37 °FClear.12 mph75%29.45 "Hg10 mi
8:20 PM39 °FPassing clouds.12 mph70%29.45 "HgN/A
7:20 PM39 °FChilly.12 mph75%29.42 "HgN/A
6:50 PM39 °FPassing clouds.10 mph81%29.42 "HgN/A
6:20 PM39 °FPassing clouds.13 mph87%29.39 "HgN/A
5:50 PM41 °FRain showers. Partly cloudy.14 mph81%29.36 "HgN/A
5:20 PM41 °FScattered clouds.12 mph81%29.33 "HgN/A
4:50 PM43 °FScattered clouds.12 mph81%29.33 "HgN/A
4:20 PM41 °FPartly sunny.12 mph87%29.36 "HgN/A
3:20 PM43 °FRain. Partly sunny.16 mph81%29.42 "Hg2 mi
2:50 PM43 °FScattered showers. Broken clouds.12 mph87%29.42 "HgN/A
2:20 PM43 °FPartly sunny.6 mph81%29.45 "HgN/A
1:50 PM43 °FSleet. Broken clouds.12 mph76%29.47 "HgN/A
1:20 PM48 °FScattered showers. Scattered clouds.12 mph54%29.47 "Hg6 mi
Weather by CustomWeather, © 2015

See weather overviewHow to use our weather pages